Location: Libas
(9.8833°N, 125.9833°E)
Time: 20:34:47
(UTC+00:00)

ARIANE 44L R/B - Pass Details

Date: 27 October 2020
Orbit: 337 x 34123 km, 7.6° (Epoch: 25 November)

Event Time Altitude Azimuth Distance (km) Brightness Sun altitude
Exits shadow 20:23:57 12° 253° (WSW) 4,561 6.4 -15.7°
Maximum altitude 20:32:04 43° 185° (S) 1,030 3.7 -13.8°
Drops below altitude 10° 20:34:55 10° 110° (ESE) 1,577 6.1 -13.1°
Sets 20:36:17 0° 101° (E) 2,218 7.6 -12.7°
